• In Belarus
  • List of Countries
  • For 7 days
  • Water Temperature
  • Weather Map
  • Weather Widgets
  • user-avatar
    Login

    Hourly Weather Jalalabad

    Today, 1 June, Monday

    Time Temperature Precipitation Wind Pressure Humidity
    00:00 +28°C° 0.2 mm 2 mps 708 mmHg 62%
    01:00 +27°C° 0.2 mm 1 mps 708 mmHg 65%
    02:00 +27°C° 0.2 mm 1 mps 708 mmHg 67%
    03:00 +26°C° 0.1 mm 1 mps 708 mmHg 69%
    04:00 +26°C° 0.1 mm 1 mps 708 mmHg 71%
    05:00 +23°C° 0 mm 0 mps 708 mmHg 74%
    06:00 +26°C° 0.1 mm 1 mps 708 mmHg 70%
    07:00 +26°C° 0.1 mm 1 mps 709 mmHg 66%
    08:00 +27°C° 0.1 mm 2 mps 709 mmHg 62%
    09:00 +28°C° 0.1 mm 2 mps 709 mmHg 57%
    10:00 +29°C° 0.1 mm 2 mps 709 mmHg 52%
    11:00 +31°C° 0.1 mm 2 mps 709 mmHg 47%
    12:00 +32°C° 0 mm 2 mps 709 mmHg 42%
    13:00 +34°C° 0 mm 2 mps 708 mmHg 37%
    14:00 +35°C° 0 mm 3 mps 708 mmHg 32%
    15:00 +35°C° 0 mm 3 mps 708 mmHg 31%
    16:00 +35°C° 0 mm 3 mps 707 mmHg 30%
    17:00 +35°C° 0 mm 4 mps 707 mmHg 28%
    18:00 +34°C° 0 mm 3 mps 707 mmHg 33%
    19:00 +33°C° 0 mm 3 mps 707 mmHg 37%
    20:00 +33°C° 0 mm 3 mps 708 mmHg 41%
    21:00 +31°C° 0 mm 2 mps 708 mmHg 45%
    22:00 +30°C° 0 mm 2 mps 708 mmHg 48%
    23:00 +30°C° 0 mm 1 mps 708 mmHg 52%

    Tomorrow, 2 June, Tuesday

    Time Temperature Precipitation Wind Pressure Humidity
    00:00 +29°C° 0 mm 1 mps 708 mmHg 54%
    01:00 +29°C° 0 mm 1 mps 707 mmHg 55%
    02:00 +26°C° 0 mm 0 mps 707 mmHg 57%
    03:00 +26°C° 0.1 mm 0 mps 707 mmHg 58%
    04:00 +25°C° 0.1 mm 0 mps 707 mmHg 59%
    05:00 +25°C° 0.1 mm 0 mps 707 mmHg 60%
    06:00 +27°C° 0.1 mm 1 mps 707 mmHg 56%
    07:00 +28°C° 0.1 mm 1 mps 707 mmHg 51%
    08:00 +29°C° 0.1 mm 1 mps 708 mmHg 47%
    09:00 +30°C° 0 mm 1 mps 708 mmHg 41%
    10:00 +32°C° 0 mm 1 mps 708 mmHg 35%
    11:00 +33°C° 0 mm 1 mps 708 mmHg 30%
    12:00 +34°C° 0 mm 1 mps 707 mmHg 26%
    13:00 +35°C° 0 mm 1 mps 707 mmHg 22%
    14:00 +37°C° 0 mm 2 mps 707 mmHg 18%
    15:00 +37°C° 0 mm 2 mps 707 mmHg 17%
    16:00 +38°C° 0 mm 3 mps 706 mmHg 16%
    17:00 +38°C° 0 mm 3 mps 706 mmHg 15%
    18:00 +37°C° 0 mm 4 mps 706 mmHg 21%
    19:00 +35°C° 0 mm 4 mps 706 mmHg 27%
    20:00 +34°C° 0 mm 4 mps 707 mmHg 33%
    21:00 +33°C° 0 mm 4 mps 707 mmHg 37%
    22:00 +31°C° 0 mm 3 mps 707 mmHg 42%
    23:00 +30°C° 0 mm 2 mps 707 mmHg 47%

    Day after tomorrow, 3 June, Wednesday

    Time Temperature Precipitation Wind Pressure Humidity
    00:00 +30°C° 0.1 mm 1 mps 707 mmHg 49%
    01:00 +29°C° 0.1 mm 1 mps 706 mmHg 51%
    02:00 +28°C° 0.1 mm 1 mps 706 mmHg 53%
    03:00 +26°C° 0.1 mm 0 mps 706 mmHg 54%
    04:00 +26°C° 0.1 mm 0 mps 706 mmHg 55%
    05:00 +25°C° 0.1 mm 0 mps 706 mmHg 56%
    06:00 +26°C° 0 mm 0 mps 706 mmHg 52%
    07:00 +27°C° 0 mm 0 mps 706 mmHg 47%
    08:00 +28°C° 0 mm 0 mps 707 mmHg 42%
    09:00 +31°C° 0 mm 1 mps 707 mmHg 38%
    10:00 +33°C° 0 mm 1 mps 707 mmHg 33%
    11:00 +34°C° 0 mm 1 mps 707 mmHg 29%
    12:00 +35°C° 0 mm 1 mps 706 mmHg 26%
    13:00 +36°C° 0 mm 1 mps 706 mmHg 22%
    14:00 +37°C° 0 mm 1 mps 706 mmHg 19%
    15:00 +38°C° 0 mm 2 mps 706 mmHg 18%
    16:00 +38°C° 0 mm 2 mps 706 mmHg 18%
    17:00 +38°C° 0 mm 3 mps 705 mmHg 17%
    18:00 +36°C° 0 mm 3 mps 705 mmHg 22%
    19:00 +35°C° 0 mm 4 mps 705 mmHg 28%
    20:00 +33°C° 0 mm 5 mps 705 mmHg 33%
    21:00 +33°C° 0 mm 3 mps 706 mmHg 34%
    22:00 +31°C° 0 mm 2 mps 706 mmHg 35%
    23:00 +31°C° 0 mm 1 mps 706 mmHg 36%

    4 June, Thursday

    Time Temperature Precipitation Wind Pressure Humidity
    00:00 +30°C° 0 mm 1 mps 706 mmHg 38%
    01:00 +30°C° 0 mm 1 mps 706 mmHg 40%
    02:00 +28°C° 0 mm 0 mps 706 mmHg 41%
    03:00 +27°C° 0 mm 0 mps 706 mmHg 42%
    04:00 +27°C° 0 mm 0 mps 706 mmHg 43%
    05:00 +26°C° 0 mm 0 mps 706 mmHg 44%
    06:00 +28°C° 0 mm 0 mps 706 mmHg 39%
    07:00 +29°C° 0 mm 0 mps 706 mmHg 35%
    08:00 +32°C° 0 mm 1 mps 707 mmHg 30%
    09:00 +33°C° 0 mm 1 mps 707 mmHg 28%
    10:00 +34°C° 0 mm 1 mps 707 mmHg 27%
    11:00 +35°C° 0 mm 1 mps 707 mmHg 25%
    12:00 +36°C° 0 mm 1 mps 706 mmHg 23%
    13:00 +37°C° 0 mm 1 mps 706 mmHg 22%
    14:00 +38°C° 0 mm 2 mps 706 mmHg 20%
    15:00 +39°C° 0 mm 2 mps 705 mmHg 19%
    16:00 +39°C° 0 mm 2 mps 705 mmHg 19%
    17:00 +39°C° 0 mm 2 mps 705 mmHg 18%
    18:00 +38°C° 0 mm 2 mps 705 mmHg 21%
    19:00 +37°C° 0 mm 2 mps 705 mmHg 24%
    20:00 +36°C° 0 mm 2 mps 706 mmHg 27%
    21:00 +36°C° 0 mm 2 mps 706 mmHg 29%
    22:00 +34°C° 0 mm 1 mps 706 mmHg 31%
    23:00 +33°C° 0 mm 1 mps 706 mmHg 33%

    5 June, Friday

    Time Temperature Precipitation Wind Pressure Humidity
    00:00 +33°C° 0 mm 1 mps 706 mmHg 34%
    01:00 +32°C° 0 mm 1 mps 706 mmHg 36%
    02:00 +31°C° 0 mm 1 mps 706 mmHg 37%
    03:00 +31°C° 0 mm 1 mps 706 mmHg 38%
    04:00 +31°C° 0 mm 1 mps 706 mmHg 38%
    05:00 +30°C° 0 mm 1 mps 706 mmHg 38%
    06:00 +31°C° 0 mm 1 mps 706 mmHg 35%
    07:00 +30°C° 0 mm 0 mps 706 mmHg 32%
    08:00 +31°C° 0 mm 0 mps 707 mmHg 29%
    09:00 +34°C° 0 mm 1 mps 707 mmHg 27%
    10:00 +35°C° 0 mm 1 mps 707 mmHg 25%
    11:00 +36°C° 0 mm 1 mps 707 mmHg 24%
    12:00 +37°C° 0 mm 1 mps 706 mmHg 21%
    13:00 +39°C° 0 mm 1 mps 706 mmHg 19%
    14:00 +40°C° 0 mm 1 mps 706 mmHg 16%
    15:00 +40°C° 0 mm 2 mps 705 mmHg 15%
    16:00 +40°C° 0 mm 3 mps 705 mmHg 15%
    17:00 +42°C° 0 mm 3 mps 705 mmHg 14%
    18:00 +39°C° 0 mm 3 mps 705 mmHg 18%
    19:00 +38°C° 0 mm 3 mps 705 mmHg 22%
    20:00 +37°C° 0 mm 3 mps 705 mmHg 25%
    21:00 +36°C° 0 mm 3 mps 705 mmHg 28%
    22:00 +35°C° 0 mm 2 mps 706 mmHg 31%
    23:00 +33°C° 0 mm 1 mps 706 mmHg 34%

    6 June, Saturday

    Time Temperature Precipitation Wind Pressure Humidity
    00:00 +33°C° 0 mm 1 mps 706 mmHg 35%
    01:00 +32°C° 0 mm 1 mps 706 mmHg 36%
    02:00 +31°C° 0 mm 1 mps 706 mmHg 38%
    03:00 +31°C° 0 mm 1 mps 706 mmHg 38%
    04:00 +30°C° 0 mm 1 mps 706 mmHg 39%
    05:00 +30°C° 0 mm 1 mps 706 mmHg 39%
    06:00 +31°C° 0 mm 1 mps 706 mmHg 38%
    07:00 +31°C° 0 mm 1 mps 706 mmHg 37%
    08:00 +32°C° 0 mm 2 mps 707 mmHg 36%
    09:00 +34°C° 0 mm 2 mps 707 mmHg 33%
    10:00 +35°C° 0 mm 2 mps 707 mmHg 31%
    11:00 +36°C° 0 mm 2 mps 707 mmHg 28%
    12:00 +38°C° 0 mm 2 mps 706 mmHg 24%
    13:00 +39°C° 0 mm 2 mps 706 mmHg 21%
    14:00 +40°C° 0 mm 2 mps 705 mmHg 17%
    15:00 +40°C° 0 mm 2 mps 705 mmHg 17%
    16:00 +40°C° 0 mm 3 mps 705 mmHg 16%
    17:00 +42°C° 0 mm 3 mps 704 mmHg 15%
    18:00 +39°C° 0 mm 3 mps 704 mmHg 19%
    19:00 +38°C° 0 mm 3 mps 704 mmHg 24%
    20:00 +37°C° 0 mm 3 mps 704 mmHg 28%
    21:00 +36°C° 0 mm 3 mps 705 mmHg 31%
    22:00 +35°C° 0 mm 2 mps 705 mmHg 34%
    23:00 +33°C° 0 mm 1 mps 706 mmHg 37%
    Show more